Terug naar catalogus

STARLINK-32611

ActiefCommunicatieVLEO
NORAD 61976·PAYLOAD·🇺🇸 United States

Gelanceerd Nov 14, 2024 vanaf Cape Canaveral Space Force Station

Loading…

Volgende Passages (komende 24 uur)

TLE

VersSource: CelesTrak SupGP

Epoch: Sep 14, 2026, 22:33 UTC

1 61976C 24210T   26257.94006944 -.00040142  00000+0 -14536-2 0  2576
2 61976  43.0029 191.0258 0001454 266.8643  87.0422 15.27606074    16

Volg STARLINK-32611 in realtime met AllMySat

Download on the App Store